THOR ABLESTAR DEB

Satellite information

Favourite Embed

Satellite Type and Status

DEBRISIN ORBIT

Key statistics

Satellite THOR ABLESTAR DEB at a glance.

Uptime

23447

Days in orbit

Revolutions

≈ 14.4

Per day

Orbit

LEO

Low Earth Orbit

Inclination

66.8

Latest

Satellite identification and parameters

Extended collection of information and parameters for THOR ABLESTAR DEB.

Object identification

Identified? True

Debris? True

Object name: THOR ABLESTAR DEB

International designator: 1961-015BM

Object number (NORAD): 225

Object ID (CCSDS): 225

Country: UNITED STATES OF AMERICA (US)

Current information (Y/N): Y

RCS size: SMALL

Orbital parameters

Period: 100.176 minutes

Inclination: 66.7956 deg

SMA: 7145.003 km

Apoapsis: 833.342 km

Periapsis: 700.394 km

RAAN: 274.4782 deg

Eccentricy: 0.00930355

Argument of periapsis: 68.6994 deg

Mean anomaly: 292.401 deg

Mean motion: 14.37471068 rev/day

Mean motion (dot): 0.00001424 rev/day2

B* drag term: 0.0004801581 1/REarth

Two-line elements (TLE)

Creation date: Sept. 7, 2025, 9:49 a.m.

Reference frame: TEME

Reference center: EARTH

Epoch: Sept. 7, 2025, 5:08 a.m. UTC

TLE line 0: 0 THOR ABLESTAR DEB

TLE line 1: 1 00225U 61015BM 25250.21392267 .00001424 00000-0 48016-3 0 9991

TLE line 2: 2 00225 66.7956 274.4782 0093036 68.6994 292.4010 14.37471068317041

Live tracking on map

Real-time ground track for satellite THOR ABLESTAR DEB.

In-orbit conjunctions

A list of the most updated potential collisions computed for object THOR ABLESTAR DEB.

Target Orbit TCA Probability of collision Miss distance Type
FENGYUN 1C DEB SSO 2025-06-23 14:33:56 0.0004312303 96.0 (m) DEBRIS
FENGYUN 1C DEB SSO 2025-06-18 18:22:09 0.0001804034 487.0 (m) DEBRIS
FENGYUN 1C DEB SSO 2025-03-16 20:37:53 0.0002037026 259.0 (m) DEBRIS

Associated space launch

THOR ABLESTAR DEB was lifted into orbit during the mission ‘Thor DM-21 Ablestar | Transit 4A & Injun-1 & Solrad 3’, on board a Thor DM-21 Ablestar space rocket.

The launch took place on June 29, 1961, 4:23 a.m. from Space Launch Complex 17B.

For more information about the launch, click the button.

Launch to space Thor DM-21 Ablestar | Transit 4A & Injun-1 & Solrad 3
Thor DM-21 Ablestar | Transit 4A & Injun-1 & Solrad 3

Agency: N/A

Status: Launch Successful

Launch date: June 29, 1961, 4:23 a.m. UTC

Rocket: Thor DM-21 Ablestar

Launch pad: Space Launch Complex 17B

Location: Cape Canaveral SFS, FL, USA

...

Latest news about this satellite

There are no fresh news available about this satellite. Check back as we update our databases every day.


Newsletter sign-up

Weekly statistics, charts and insights to help you stay on top of the space industry.